ONEWEB-0321 (49191 NORAD) Tracking and Keplerian Element Data

This shows tracking and keplerian element data for the satellite.

Feedback or suggestion? Click here.




ElementValue
Catalog49191
NameONEWEB-0321
Epoch Orbit780
Epoch Day300.83334491
Epoch Year2021
RAAN312.9695
Inclination87.2034
Eccentricity0.0022209
Argument of Perigee145.3093
Mean Anonmoly98.9842
Mean Motion14.8958256
Decay Rate0.00030984
L11 49191U 21083F 21300.83334491 .00030984 00000-0 32199-2 0 9999
L22 49191 87.2034 312.9695 0022209 145.3093 98.9842 14.89582560 7808

Live tracking and technical data element details for ONEWEB-0321 (NORAD 49191). ONEWEB-0321 can be tracked NOW for your location showing map with azimuth and elevation plus other details from your city location.

Track the satellite on the map from your city or location and see movement details for azimuth, elevation, latitude, longitude, range, height, and movement on the map or in text.







IsCatalogInMostPopularTable: catalog: 49191, numindb: 10
Update: records affected: 1



GetName: 49191 ONEWEB-0321

Hit Count: updated at: Thu, 28 Oct 2021 12:04:35 GMT